ホイップル彗星

36P/Whipple (2011)

English version
Home page
Updated on December 7, 2011

---------------------------------------------------------------------

・ プロフィール

・ 写真集

・ 軌道要素

The following orbital elements are taken from MPC 75716:

Epoch 2011 Dec. 25.0 TT = JDT 2455920.5
T 2011 Dec. 29.5886 TT                                  MPC
q   3.087890             (2000.0)            P               Q
n   0.1154111      Peri.  201.5974      +0.9138575      -0.4059713
a   4.178025       Node   182.3910      +0.3931999      +0.8892507
e   0.260921       Incl.    9.9310      +0.1012834      +0.2107615
P   8.54
From 213 observations 1985-2011, mean residual 0".6.

・ 光度変化

        m1 = 8.0 + 5 logΔ + 17.0 log r

---------------------------------------------------------------------

軌道要素はMPCのEphemerides and Orbital Elementsに掲載されたものです。
光度グラフはComet for Windowsで作成したものです。

---------------------------------------------------------------------

Copyright(C) Seiichi Yoshida (comet@aerith.net). All rights reserved.